Terminal Aerodrome Forecast
Issued by NWS

Home | Current Version | Previous Version | Text Only | Print | Product List | Glossary On
Versions: 1 2 3 4 5 6 7 8 9 10 11 12
000
FTAK31 PAJN 272320
TAFAPG
TAF
PAPG 272320Z 2800/2824 VRB05KT 6SM -RA BR SCT004 BKN015 OVC025
     FM281500 VRB03KT 6SM -SHRA BR SCT015 OVC025=

USA.gov is the U.S. government's official web portal to all federal, state and local government web resources and services.